| time (UTC) | temp F | wind direction | speed MPH | gust MPH | rain 1hr in | rain 24hr in | rain mn in | humidity % | barometer mb |
| 20260902185004 | 82 | 243 | 4.0 | 7.0 | 0.00 | 0.19 | 0.19 | 80 | 1013.7 |
| 20260902184556 | 82 | 240 | 2.0 | 6.0 | 0.00 | 0.19 | 0.19 | 81 | 1013.7 |
| 20260902184027 | 82 | 231 | 2.0 | 6.0 | 0.00 | 0.19 | 0.19 | 81 | 1013.8 |
| 20260902183507 | 82 | 251 | 0.0 | 4.0 | 0.00 | 0.19 | 0.19 | 81 | 1013.8 |
| 20260902183105 | 81 | 251 | 1.0 | 3.0 | 0.00 | 0.19 | 0.19 | 81 | 1013.7 |
| 20260902182532 | 81 | 252 | 1.0 | 9.0 | 0.00 | 0.19 | 0.19 | 81 | 1013.7 |
| 20260902182011 | 81 | 252 | 3.0 | 9.0 | 0.00 | 0.19 | 0.19 | 81 | 1013.8 |
| 20260902181555 | 81 | 187 | 1.0 | 8.0 | 0.00 | 0.19 | 0.19 | 81 | 1013.8 |
| 20260902181035 | 81 | 229 | 1.0 | 12.0 | 0.00 | 0.19 | 0.19 | 82 | 1013.8 |
| 20260902180515 | 81 | 243 | 2.0 | 9.0 | 0.00 | 0.19 | 0.19 | 82 | 1013.8 |
| 20260902180059 | 81 | 243 | 0.0 | 6.0 | 0.00 | 0.19 | 0.19 | 83 | 1013.8 |
| 20260902175521 | 81 | 221 | 0.0 | 6.0 | 0.00 | 0.19 | 0.19 | 83 | 1013.8 |
| 20260902175002 | 80 | 221 | 2.0 | 6.0 | 0.00 | 0.19 | 0.19 | 84 | 1013.7 |
| 20260902174546 | 80 | 244 | 2.0 | 8.0 | 0.00 | 0.19 | 0.19 | 84 | 1013.8 |
| 20260902174025 | 79 | 264 | 4.0 | 9.0 | 0.00 | 0.19 | 0.19 | 85 | 1013.9 |
| 20260902173505 | 79 | 237 | 3.0 | 9.0 | 0.00 | 0.19 | 0.19 | 86 | 1013.8 |
| 20260902173050 | 78 | 231 | 1.0 | 6.0 | 0.00 | 0.19 | 0.19 | 87 | 1013.8 |
| 20260902172529 | 78 | 233 | 1.0 | 5.0 | 0.00 | 0.19 | 0.19 | 88 | 1014.1 |
| 20260902172009 | 77 | 231 | 2.0 | 5.0 | 0.00 | 0.19 | 0.19 | 89 | 1014.2 |
| 20260902171555 | 77 | 232 | 0.0 | 5.0 | 0.00 | 0.19 | 0.19 | 90 | 1014.3 |
| 20260902171033 | 76 | 235 | 0.0 | 5.0 | 0.00 | 0.19 | 0.19 | 90 | 1014.3 |
| 20260902170513 | 76 | 228 | 0.0 | 5.0 | 0.00 | 0.19 | 0.19 | 90 | 1014.4 |
| 20260902170057 | 76 | 228 | 1.0 | 5.0 | 0.00 | 0.19 | 0.19 | 90 | 1014.4 |
| 20260902165529 | 76 | 231 | 0.0 | 5.0 | 0.00 | 0.19 | 0.19 | 89 | 1014.5 |
| 20260902165008 | 76 | 231 | 0.0 | 2.0 | 0.00 | 0.19 | 0.19 | 88 | 1014.5 |
| 20260902164552 | 76 | 231 | 0.0 | 2.0 | 0.00 | 0.19 | 0.19 | 88 | 1014.6 |
| 20260902164032 | 76 | 231 | 0.0 | 5.0 | 0.00 | 0.19 | 0.19 | 87 | 1014.8 |
| 20260902163512 | 77 | 231 | 0.0 | 5.0 | 0.00 | 0.19 | 0.19 | 87 | 1015.3 |
| 20260902163100 | 77 | 267 | 0.0 | 5.0 | 0.00 | 0.19 | 0.19 | 87 | 1015.7 |
| 20260902162536 | 77 | 269 | 0.0 | 6.0 | 0.00 | 0.19 | 0.19 | 86 | 1016.1 |
| 20260902162016 | 77 | 336 | 3.0 | 7.0 | 0.00 | 0.19 | 0.19 | 85 | 1015.9 |
| 20260902161603 | 78 | 271 | 3.0 | 7.0 | 0.00 | 0.19 | 0.19 | 84 | 1015.2 |
| 20260902161040 | 78 | 250 | 2.0 | 6.0 | 0.00 | 0.19 | 0.19 | 85 | 1014.8 |
| 20260902160524 | 78 | 249 | 1.0 | 4.0 | 0.00 | 0.19 | 0.19 | 86 | 1014.4 |
| 20260902155523 | 78 | 249 | 1.0 | 7.0 | 0.00 | 0.19 | 0.19 | 86 | 1014.4 |
| 20260902155003 | 78 | 231 | 0.0 | 5.0 | 0.00 | 0.19 | 0.19 | 86 | 1014.5 |
| 20260902154550 | 78 | 231 | 0.0 | 5.0 | 0.00 | 0.19 | 0.19 | 86 | 1014.5 |
| 20260902154027 | 78 | 235 | 1.0 | 5.0 | 0.00 | 0.19 | 0.19 | 87 | 1014.7 |
| 20260902153507 | 78 | 231 | 1.0 | 5.0 | 0.00 | 0.19 | 0.19 | 87 | 1015.0 |
| 20260902153051 | 78 | 246 | 0.0 | 8.0 | 0.00 | 0.19 | 0.19 | 86 | 1015.0 |
| 20260902152534 | 78 | 247 | 3.0 | 8.0 | 0.00 | 0.19 | 0.19 | 86 | 1014.9 |
| 20260902152015 | 77 | 250 | 3.0 | 6.0 | 0.00 | 0.19 | 0.19 | 89 | 1014.9 |
| 20260902151601 | 77 | 248 | 1.0 | 6.0 | 0.00 | 0.19 | 0.19 | 90 | 1014.9 |
| 20260902151035 | 76 | 251 | 1.0 | 9.0 | 0.00 | 0.19 | 0.19 | 91 | 1015.0 |
| 20260902150518 | 76 | 246 | 0.0 | 5.0 | 0.00 | 0.19 | 0.19 | 94 | 1015.1 |
| 20260902150059 | 76 | 246 | 1.0 | 5.0 | 0.00 | 0.19 | 0.19 | 94 | 1014.9 |
| 20260902145521 | 75 | 248 | 0.0 | 3.0 | 0.00 | 0.19 | 0.19 | 95 | 1015.1 |
| 20260902145000 | 75 | 250 | 0.0 | 5.0 | 0.00 | 0.19 | 0.19 | 95 | 1015.1 |
| 20260902144545 | 74 | 250 | 0.0 | 5.0 | 0.00 | 0.19 | 0.19 | 95 | 1015.2 |
| 20260902144025 | 74 | 262 | 0.0 | 0.0 | 0.00 | 0.19 | 0.19 | 95 | 1015.4 |
| 20260902143505 | 73 | 23 | 0.0 | 0.0 | 0.00 | 0.19 | 0.19 | 95 | 1015.5 |
| 20260902143055 | 73 | 23 | 0.0 | 0.0 | 0.00 | 0.19 | 0.19 | 95 | 1015.4 |
| 20260902142531 | 72 | 23 | 0.0 | 0.0 | 0.00 | 0.19 | 0.19 | 95 | 1015.5 |
| 20260902142009 | 72 | 23 | 0.0 | 0.0 | 0.00 | 0.19 | 0.19 | 95 | 1015.5 |
| 20260902141554 | 72 | 23 | 0.0 | 0.0 | 0.00 | 0.19 | 0.19 | 95 | 1015.4 |
| 20260902141033 | 71 | 23 | 0.0 | 0.0 | 0.00 | 0.19 | 0.19 | 95 | 1015.4 |
| 20260902140513 | 71 | 23 | 0.0 | 0.0 | 0.01 | 0.19 | 0.19 | 95 | 1015.5 |
| 20260902140059 | 71 | 23 | 0.0 | 0.0 | 0.01 | 0.19 | 0.19 | 95 | 1015.5 |
| 20260902135516 | 70 | 23 | 0.0 | 0.0 | 0.01 | 0.19 | 0.19 | 95 | 1015.6 |
| 20260902135100 | 70 | 23 | 0.0 | 0.0 | 0.01 | 0.19 | 0.19 | 95 | 1015.5 |
| 20260902134554 | 70 | 23 | 0.0 | 0.0 | 0.01 | 0.19 | 0.19 | 95 | 1015.5 |
| 20260902134020 | 70 | 23 | 0.0 | 0.0 | 0.01 | 0.19 | 0.19 | 95 | 1015.5 |
| 20260902133604 | 70 | 23 | 0.0 | 0.0 | 0.01 | 0.19 | 0.19 | 95 | 1015.4 |
| 20260902133044 | 70 | 23 | 0.0 | 0.0 | 0.01 | 0.19 | 0.19 | 95 | 1015.4 |
| 20260902132524 | 70 | 23 | 0.0 | 0.0 | 0.01 | 0.19 | 0.19 | 95 | 1015.4 |
| 20260902132004 | 69 | 23 | 0.0 | 0.0 | 0.01 | 0.19 | 0.19 | 95 | 1015.5 |
| 20260902131550 | 69 | 23 | 0.0 | 0.0 | 0.01 | 0.19 | 0.19 | 94 | 1015.5 |
| 20260902131028 | 70 | 23 | 0.0 | 0.0 | 0.01 | 0.19 | 0.19 | 94 | 1015.5 |
| 20260902130508 | 70 | 23 | 0.0 | 0.0 | 0.00 | 0.18 | 0.18 | 94 | 1015.2 |
| 20260902130057 | 69 | 23 | 0.0 | 0.0 | 0.00 | 0.18 | 0.18 | 94 | 1015.2 |
| 20260902125512 | 69 | 23 | 0.0 | 0.0 | 0.00 | 0.18 | 0.18 | 94 | 1015.4 |
| 20260902125056 | 69 | 23 | 0.0 | 0.0 | 0.02 | 0.18 | 0.18 | 94 | 1015.4 |
| 20260902124537 | 70 | 23 | 0.0 | 0.0 | 0.18 | 0.18 | 0.18 | 94 | 1015.6 |
| 20260902124016 | 70 | 23 | 0.0 | 0.0 | 0.18 | 0.18 | 0.18 | 93 | 1015.6 |
| 20260902123601 | 70 | 23 | 0.0 | 0.0 | 0.18 | 0.18 | 0.18 | 93 | 1015.7 |
| 20260902123040 | 70 | 23 | 0.0 | 0.0 | 0.18 | 0.18 | 0.18 | 93 | 1015.7 |
| 20260902122520 | 70 | 23 | 0.0 | 0.0 | 0.18 | 0.18 | 0.18 | 93 | 1015.8 |
| 20260902122105 | 70 | 23 | 0.0 | 0.0 | 0.18 | 0.18 | 0.18 | 92 | 1015.6 |
| 20260902121547 | 71 | 23 | 0.0 | 1.0 | 0.18 | 0.18 | 0.18 | 92 | 1015.6 |
| 20260902121025 | 71 | 23 | 0.0 | 0.0 | 0.18 | 0.18 | 0.18 | 91 | 1015.6 |
| 20260902120504 | 71 | 23 | 0.0 | 0.0 | 0.18 | 0.18 | 0.18 | 91 | 1015.6 |
| 20260902120048 | 72 | 23 | 0.0 | 0.0 | 0.18 | 0.18 | 0.18 | 90 | 1015.6 |
| 20260902115510 | 73 | 23 | 0.0 | 8.0 | 0.18 | 0.18 | 0.18 | 88 | 1015.5 |
| 20260902115054 | 73 | 23 | 0.0 | 11.0 | 0.16 | 0.16 | 0.16 | 87 | 1015.2 |
| 20260902114535 | 74 | 41 | 4.0 | 14.0 | 0.00 | 0.00 | 0.00 | 86 | 1015.4 |
| 20260902114016 | 75 | 277 | 2.0 | 14.0 | 0.00 | 0.00 | 0.00 | 89 | 1015.0 |
| 20260902113557 | 75 | 262 | 0.0 | 6.0 | 0.00 | 0.00 | 0.00 | 89 | 1014.1 |
| 20260902113037 | 75 | 216 | 0.0 | 9.0 | 0.00 | 0.00 | 0.00 | 89 | 1014.1 |
| 20260902112520 | 75 | 216 | 1.0 | 9.0 | 0.00 | 0.00 | 0.00 | 90 | 1014.0 |
| 20260902112102 | 75 | 250 | 3.0 | 8.0 | 0.00 | 0.00 | 0.00 | 90 | 1014.1 |
| 20260902111542 | 75 | 219 | 0.0 | 6.0 | 0.00 | 0.00 | 0.00 | 90 | 1013.8 |
| 20260902111022 | 75 | 217 | 2.0 | 7.0 | 0.00 | 0.00 | 0.00 | 90 | 1013.6 |
| 20260902110503 | 75 | 213 | 2.0 | 7.0 | 0.00 | 0.00 | 0.00 | 91 | 1013.4 |
| 20260902110046 | 75 | 190 | 0.0 | 4.0 | 0.00 | 0.00 | 0.00 | 91 | 1013.4 |
| 20260902105505 | 75 | 180 | 0.0 | 6.0 | 0.00 | 0.00 | 0.00 | 91 | 1013.2 |
| 20260902105049 | 75 | 240 | 0.0 | 6.0 | 0.00 | 0.00 | 0.00 | 91 | 1013.1 |
| 20260902104529 | 74 | 274 | 1.0 | 6.0 | 0.00 | 0.00 | 0.00 | 92 | 1012.8 |
| 20260902104009 | 74 | 277 | 0.0 | 5.0 | 0.00 | 0.00 | 0.00 | 92 | 1012.7 |
| 20260902103552 | 74 | 277 | 0.0 | 5.0 | 0.00 | 0.00 | 0.00 | 93 | 1012.7 |
| 20260902103038 | 74 | 259 | 0.0 | 5.0 | 0.00 | 0.00 | 0.00 | 93 | 1012.7 |
| 20260902102513 | 74 | 248 | 0.0 | 5.0 | 0.00 | 0.00 | 0.00 | 93 | 1012.8 |
| 20260902102057 | 74 | 248 | 1.0 | 4.0 | 0.00 | 0.00 | 0.00 | 94 | 1012.9 |
| 20260902101536 | 74 | 249 | 0.0 | 3.0 | 0.00 | 0.00 | 0.00 | 94 | 1012.9 |
| 20260902101018 | 74 | 249 | 0.0 | 2.0 | 0.00 | 0.00 | 0.00 | 94 | 1013.1 |
| 20260902100601 | 74 | 249 | 0.0 | 1.0 | 0.00 | 0.00 | 0.00 | 94 | 1013.1 |
| 20260902100022 | 74 | 249 | 0.0 | 2.0 | 0.00 | 0.00 | 0.00 | 94 | 1013.2 |
| 20260902095502 | 74 | 249 | 0.0 | 2.0 | 0.00 | 0.00 | 0.00 | 94 | 1013.1 |
| 20260902095045 | 74 | 249 | 0.0 | 2.0 | 0.00 | 0.00 | 0.00 | 94 | 1013.0 |
| 20260902094525 | 74 | 249 | 0.0 | 4.0 | 0.00 | 0.00 | 0.00 | 94 | 1013.0 |
| 20260902094010 | 74 | 249 | 0.0 | 4.0 | 0.00 | 0.00 | 0.00 | 95 | 1013.2 |
| 20260902093549 | 74 | 250 | 0.0 | 4.0 | 0.00 | 0.00 | 0.00 | 95 | 1013.2 |
| 20260902093028 | 74 | 250 | 1.0 | 4.0 | 0.00 | 0.00 | 0.00 | 95 | 1013.4 |
| 20260902092512 | 74 | 231 | 0.0 | 2.0 | 0.00 | 0.00 | 0.00 | 95 | 1013.5 |
| 20260902092056 | 74 | 231 | 0.0 | 2.0 | 0.00 | 0.00 | 0.00 | 95 | 1013.7 |
| 20260902091557 | 74 | 231 | 0.0 | 2.0 | 0.00 | 0.00 | 0.00 | 95 | 1013.7 |
| 20260902091013 | 74 | 231 | 0.0 | 4.0 | 0.00 | 0.00 | 0.00 | 95 | 1013.8 |
| 20260902090559 | 74 | 231 | 0.0 | 2.0 | 0.00 | 0.00 | 0.00 | 95 | 1013.7 |
| 20260902090037 | 74 | 261 | 0.0 | 4.0 | 0.00 | 0.00 | 0.00 | 95 | 1013.7 |
| 20260902085605 | 74 | 261 | 0.0 | 8.0 | 0.00 | 0.00 | 0.00 | 95 | 1013.7 |
| 20260902085042 | 74 | 261 | 1.0 | 8.0 | 0.00 | 0.00 | 0.00 | 95 | 1013.7 |
| 20260902084523 | 74 | 269 | 0.0 | 5.0 | 0.00 | 0.00 | 0.00 | 95 | 1013.6 |
| 20260902084003 | 73 | 269 | 0.0 | 5.0 | 0.00 | 0.00 | 0.00 | 95 | 1013.6 |
| 20260902083547 | 73 | 281 | 0.0 | 5.0 | 0.00 | 0.00 | 0.00 | 95 | 1013.8 |
| 20260902083026 | 73 | 281 | 0.0 | 5.0 | 0.00 | 0.00 | 0.00 | 95 | 1013.9 |
| 20260902082507 | 73 | 282 | 0.0 | 0.0 | 0.00 | 0.00 | 0.00 | 95 | 1013.8 |
| 20260902082051 | 73 | 282 | 0.0 | 1.0 | 0.00 | 0.00 | 0.00 | 95 | 1014.0 |
| 20260902081534 | 73 | 282 | 0.0 | 1.0 | 0.00 | 0.00 | 0.00 | 95 | 1014.0 |
| 20260902081010 | 73 | 282 | 0.0 | 0.0 | 0.00 | 0.00 | 0.00 | 95 | 1014.0 |
| 20260902080555 | 73 | 282 | 0.0 | 0.0 | 0.00 | 0.00 | 0.00 | 95 | 1014.1 |
| 20260902080047 | 73 | 282 | 0.0 | 0.0 | 0.00 | 0.00 | 0.00 | 95 | 1014.2 |
| 20260902075600 | 73 | 282 | 0.0 | 0.0 | 0.00 | 0.00 | 0.00 | 95 | 1014.5 |
| 20260902075037 | 73 | 282 | 0.0 | 2.0 | 0.00 | 0.00 | 0.00 | 95 | 1014.8 |
| 20260902074518 | 73 | 282 | 0.0 | 2.0 | 0.00 | 0.00 | 0.00 | 95 | 1014.8 |
| 20260902074102 | 73 | 282 | 0.0 | 0.0 | 0.00 | 0.00 | 0.00 | 95 | 1014.7 |
| 20260902073541 | 73 | 282 | 0.0 | 0.0 | 0.00 | 0.00 | 0.00 | 95 | 1014.7 |
| 20260902073022 | 73 | 282 | 0.0 | 0.0 | 0.00 | 0.00 | 0.00 | 95 | 1014.6 |
| 20260902072502 | 73 | 282 | 0.0 | 0.0 | 0.00 | 0.00 | 0.00 | 95 | 1014.5 |
| 20260902072045 | 73 | 282 | 0.0 | 0.0 | 0.00 | 0.00 | 0.00 | 95 | 1014.5 |
| 20260902071548 | 73 | 282 | 0.0 | 0.0 | 0.00 | 0.00 | 0.00 | 95 | 1014.6 |
| 20260902071009 | 73 | 282 | 0.0 | 2.0 | 0.00 | 0.00 | 0.00 | 95 | 1014.8 |
| 20260902070549 | 73 | 282 | 0.0 | 2.0 | 0.00 | 0.00 | 0.00 | 95 | 1014.8 |
| 20260902070012 | 73 | 282 | 0.0 | 0.0 | 0.00 | 0.00 | 0.00 | 95 | 1014.9 |
| 20260902065555 | 73 | 282 | 0.0 | 0.0 | 0.00 | 0.00 | 0.00 | 95 | 1014.9 |
| 20260902065036 | 73 | 282 | 0.0 | 0.0 | 0.00 | 0.00 | 0.00 | 95 | 1014.8 |
| 20260902064516 | 73 | 282 | 0.0 | 0.0 | 0.00 | 0.00 | 0.00 | 95 | 1014.7 |
| 20260902064059 | 73 | 282 | 0.0 | 0.0 | 0.00 | 0.00 | 0.00 | 95 | 1014.7 |
| 20260902063540 | 73 | 282 | 0.0 | 4.0 | 0.00 | 0.00 | 0.00 | 95 | 1014.7 |
| 20260902063019 | 73 | 282 | 0.0 | 4.0 | 0.00 | 0.00 | 0.00 | 95 | 1014.7 |
| 20260902062558 | 73 | 282 | 0.0 | 0.0 | 0.00 | 0.00 | 0.00 | 95 | 1014.8 |
| 20260902062039 | 73 | 282 | 0.0 | 0.0 | 0.00 | 0.00 | 0.00 | 95 | 1014.8 |
| 20260902061522 | 73 | 282 | 0.0 | 0.0 | 0.00 | 0.00 | 0.00 | 95 | 1014.8 |
| 20260902061102 | 73 | 282 | 0.0 | 0.0 | 0.00 | 0.00 | 0.00 | 95 | 1014.8 |
| 20260902060541 | 73 | 282 | 0.0 | 0.0 | 0.00 | 0.00 | 0.00 | 95 | 1014.9 |
| 20260902060009 | 73 | 282 | 0.0 | 0.0 | 0.00 | 0.00 | 0.00 | 95 | 1014.9 |
| 20260902055549 | 73 | 282 | 0.0 | 0.0 | 0.00 | 0.00 | 0.00 | 95 | 1014.8 |
| 20260902055028 | 73 | 282 | 0.0 | 0.0 | 0.00 | 0.00 | 0.00 | 95 | 1014.7 |
| 20260902054516 | 73 | 282 | 0.0 | 0.0 | 0.00 | 0.00 | 0.00 | 95 | 1014.9 |
| 20260902054051 | 73 | 282 | 0.0 | 0.0 | 0.00 | 0.00 | 0.00 | 95 | 1015.0 |
| 20260902053531 | 73 | 282 | 0.0 | 0.0 | 0.00 | 0.00 | 0.00 | 95 | 1014.8 |
| 20260902053012 | 73 | 282 | 0.0 | 0.0 | 0.00 | 0.00 | 0.00 | 94 | 1014.7 |
| 20260902052555 | 73 | 282 | 0.0 | 0.0 | 0.00 | 0.00 | 0.00 | 94 | 1014.7 |
| 20260902052035 | 73 | 282 | 0.0 | 0.0 | 0.00 | 0.00 | 0.00 | 94 | 1014.7 |
| 20260902051516 | 73 | 282 | 0.0 | 0.0 | 0.00 | 0.00 | 0.00 | 95 | 1014.7 |
| 20260902051059 | 74 | 282 | 0.0 | 0.0 | 0.00 | 0.00 | 0.00 | 95 | 1014.7 |
| 20260902050542 | 74 | 282 | 0.0 | 0.0 | 0.00 | 0.00 | 0.00 | 95 | 1014.7 |
| 20260902050002 | 74 | 282 | 0.0 | 0.0 | 0.00 | 0.00 | 0.00 | 95 | 1014.8 |
| 20260902045545 | 74 | 282 | 0.0 | 0.0 | 0.00 | 0.00 | 0.00 | 95 | 1014.9 |
| 20260902045025 | 74 | 282 | 0.0 | 0.0 | 0.00 | 0.00 | 0.00 | 95 | 1015.0 |
| 20260902044508 | 74 | 282 | 0.0 | 0.0 | 0.00 | 0.00 | 0.00 | 95 | 1015.0 |
| 20260902044051 | 74 | 282 | 0.0 | 0.0 | 0.00 | 0.00 | 0.00 | 95 | 1014.9 |
| 20260902043528 | 74 | 282 | 0.0 | 0.0 | 0.00 | 0.00 | 0.00 | 94 | 1014.9 |
| 20260902043008 | 74 | 282 | 0.0 | 0.0 | 0.00 | 0.00 | 0.00 | 94 | 1014.9 |
| 20260902042552 | 74 | 282 | 0.0 | 0.0 | 0.00 | 0.00 | 0.00 | 95 | 1014.8 |
| 20260902042032 | 74 | 282 | 0.0 | 0.0 | 0.00 | 0.00 | 0.00 | 95 | 1014.9 |
| 20260902041514 | 74 | 282 | 0.0 | 0.0 | 0.00 | 0.00 | 0.00 | 95 | 1014.9 |
| 20260902041058 | 74 | 282 | 0.0 | 0.0 | 0.00 | 0.00 | 0.00 | 95 | 1014.9 |
| 20260902040536 | 74 | 282 | 0.0 | 0.0 | 0.00 | 0.00 | 0.00 | 95 | 1014.9 |
| 20260902040119 | 74 | 282 | 0.0 | 0.0 | 0.00 | 0.00 | 0.00 | 95 | 1014.8 |
| 20260902035543 | 74 | 282 | 0.0 | 0.0 | 0.00 | 0.00 | 0.00 | 95 | 1014.7 |
| 20260902035020 | 74 | 282 | 0.0 | 0.0 | 0.00 | 0.00 | 0.00 | 95 | 1014.6 |
| 20260902034605 | 74 | 282 | 0.0 | 0.0 | 0.00 | 0.00 | 0.00 | 95 | 1014.8 |
| 20260902034046 | 74 | 282 | 0.0 | 0.0 | 0.00 | 0.00 | 0.00 | 94 | 1014.6 |
| 20260902033525 | 74 | 282 | 0.0 | 0.0 | 0.00 | 0.00 | 0.00 | 94 | 1014.7 |
| 20260902033004 | 74 | 282 | 0.0 | 0.0 | 0.00 | 0.00 | 0.00 | 94 | 1014.6 |
| 20260902032548 | 74 | 282 | 0.0 | 0.0 | 0.00 | 0.00 | 0.00 | 94 | 1014.6 |
| 20260902032028 | 74 | 282 | 0.0 | 0.0 | 0.00 | 0.00 | 0.00 | 94 | 1014.6 |
| 20260902031508 | 74 | 282 | 0.0 | 0.0 | 0.00 | 0.00 | 0.00 | 94 | 1014.4 |
| 20260902031055 | 74 | 282 | 0.0 | 0.0 | 0.00 | 0.00 | 0.00 | 94 | 1014.5 |
| 20260902030532 | 74 | 282 | 0.0 | 0.0 | 0.00 | 0.00 | 0.00 | 94 | 1014.3 |
| 20260902030116 | 74 | 282 | 0.0 | 0.0 | 0.00 | 0.00 | 0.00 | 94 | 1014.3 |
| 20260902025538 | 74 | 282 | 0.0 | 0.0 | 0.00 | 0.00 | 0.00 | 94 | 1014.4 |
| 20260902025018 | 74 | 282 | 0.0 | 0.0 | 0.00 | 0.00 | 0.00 | 94 | 1014.3 |
| 20260902024604 | 74 | 282 | 0.0 | 0.0 | 0.00 | 0.00 | 0.00 | 94 | 1014.4 |
| 20260902024044 | 74 | 282 | 0.0 | 0.0 | 0.00 | 0.00 | 0.00 | 93 | 1014.4 |
| 20260902023522 | 74 | 282 | 0.0 | 4.0 | 0.00 | 0.00 | 0.00 | 93 | 1014.6 |
| 20260902023119 | 74 | 282 | 0.0 | 4.0 | 0.00 | 0.00 | 0.00 | 93 | 1014.6 |
| 20260902022543 | 74 | 285 | 0.0 | 0.0 | 0.00 | 0.00 | 0.00 | 93 | 1014.6 |
| 20260902022023 | 74 | 285 | 0.0 | 0.0 | 0.00 | 0.00 | 0.00 | 93 | 1014.6 |
| 20260902021503 | 74 | 285 | 0.0 | 0.0 | 0.00 | 0.00 | 0.00 | 93 | 1014.6 |
| 20260902021047 | 74 | 285 | 0.0 | 0.0 | 0.00 | 0.00 | 0.00 | 93 | 1014.6 |
| 20260902020528 | 74 | 285 | 0.0 | 0.0 | 0.00 | 0.00 | 0.00 | 92 | 1014.6 |
| 20260902020112 | 74 | 285 | 0.0 | 0.0 | 0.00 | 0.00 | 0.00 | 92 | 1014.7 |
| 20260902015535 | 75 | 285 | 0.0 | 0.0 | 0.00 | 0.00 | 0.00 | 92 | 1014.5 |
| 20260902015016 | 75 | 285 | 0.0 | 0.0 | 0.00 | 0.00 | 0.00 | 91 | 1014.7 |
| 20260902014558 | 75 | 285 | 0.0 | 0.0 | 0.00 | 0.00 | 0.00 | 92 | 1014.7 |
| 20260902014037 | 75 | 285 | 0.0 | 0.0 | 0.00 | 0.00 | 0.00 | 91 | 1014.7 |
| 20260902013517 | 75 | 285 | 0.0 | 0.0 | 0.00 | 0.00 | 0.00 | 91 | 1014.7 |
| 20260902013101 | 75 | 285 | 0.0 | 0.0 | 0.00 | 0.00 | 0.00 | 91 | 1014.7 |
| 20260902012544 | 76 | 285 | 0.0 | 0.0 | 0.00 | 0.00 | 0.00 | 90 | 1014.7 |
| 20260902012024 | 76 | 285 | 0.0 | 2.0 | 0.00 | 0.00 | 0.00 | 90 | 1014.7 |
| 20260902011503 | 76 | 285 | 0.0 | 2.0 | 0.00 | 0.00 | 0.00 | 89 | 1014.6 |
| 20260902011046 | 77 | 285 | 0.0 | 2.0 | 0.00 | 0.00 | 0.00 | 89 | 1014.5 |
| 20260902010524 | 77 | 283 | 0.0 | 0.0 | 0.00 | 0.00 | 0.00 | 89 | 1014.5 |
| 20260902010122 | 77 | 283 | 0.0 | 0.0 | 0.00 | 0.00 | 0.00 | 88 | 1014.4 |
| 20260902005533 | 77 | 283 | 0.0 | 0.0 | 0.00 | 0.00 | 0.00 | 88 | 1014.3 |
| 20260902005009 | 78 | 283 | 0.0 | 0.0 | 0.00 | 0.00 | 0.00 | 88 | 1014.2 |
| 20260902004551 | 78 | 283 | 0.0 | 0.0 | 0.00 | 0.00 | 0.00 | 88 | 1014.1 |
| 20260902004032 | 78 | 283 | 0.0 | 0.0 | 0.00 | 0.00 | 0.00 | 87 | 1014.1 |
| 20260902003514 | 78 | 283 | 0.0 | 0.0 | 0.00 | 0.00 | 0.00 | 87 | 1014.0 |
| 20260902003056 | 78 | 283 | 0.0 | 0.0 | 0.00 | 0.00 | 0.00 | 87 | 1014.1 |
| 20260902002541 | 79 | 283 | 0.0 | 0.0 | 0.00 | 0.00 | 0.00 | 86 | 1014.0 |
| 20260902002016 | 79 | 283 | 0.0 | 0.0 | 0.00 | 0.00 | 0.00 | 86 | 1014.0 |
| 20260902001600 | 79 | 283 | 0.0 | 0.0 | 0.00 | 0.00 | 0.00 | 86 | 1013.9 |
| 20260902001040 | 79 | 283 | 0.0 | 0.0 | 0.00 | 0.00 | 0.00 | 86 | 1013.8 |
| 20260902000520 | 79 | 283 | 0.0 | 1.0 | 0.00 | 0.00 | 0.00 | 85 | 1013.7 |
| 20260902000105 | 80 | 283 | 0.0 | 1.0 | 0.00 | 0.00 | 0.00 | 85 | 1013.6 |
| 20260901235526 | 80 | 283 | 0.0 | 0.0 | 0.00 | 0.00 | 0.00 | 85 | 1013.6 |
| 20260901235007 | 80 | 283 | 0.0 | 0.0 | 0.00 | 0.00 | 0.00 | 85 | 1013.7 |
| 20260901234551 | 80 | 283 | 0.0 | 0.0 | 0.00 | 0.00 | 0.00 | 85 | 1013.7 |
| 20260901234030 | 80 | 283 | 0.0 | 0.0 | 0.00 | 0.00 | 0.00 | 84 | 1013.6 |
| 20260901233509 | 81 | 283 | 0.0 | 2.0 | 0.00 | 0.00 | 0.00 | 84 | 1013.6 |
| 20260901233101 | 81 | 283 | 0.0 | 2.0 | 0.00 | 0.00 | 0.00 | 83 | 1013.6 |
| 20260901232534 | 82 | 283 | 0.0 | 1.0 | 0.00 | 0.00 | 0.00 | 83 | 1013.6 |
| 20260901232014 | 82 | 283 | 0.0 | 0.0 | 0.00 | 0.00 | 0.00 | 83 | 1013.6 |
| 20260901231558 | 82 | 283 | 0.0 | 0.0 | 0.00 | 0.00 | 0.00 | 83 | 1013.5 |
| 20260901231037 | 82 | 283 | 0.0 | 0.0 | 0.00 | 0.00 | 0.00 | 82 | 1013.6 |
| 20260901230518 | 82 | 283 | 0.0 | 0.0 | 0.00 | 0.00 | 0.00 | 82 | 1013.7 |
| 20260901230104 | 82 | 283 | 0.0 | 0.0 | 0.00 | 0.00 | 0.00 | 82 | 1013.8 |
| 20260901225526 | 82 | 283 | 0.0 | 0.0 | 0.00 | 0.00 | 0.00 | 82 | 1013.9 |
| 20260901225004 | 82 | 283 | 0.0 | 0.0 | 0.00 | 0.00 | 0.00 | 82 | 1014.0 |
| 20260901224548 | 82 | 283 | 0.0 | 1.0 | 0.00 | 0.00 | 0.00 | 82 | 1013.9 |
| 20260901224027 | 82 | 283 | 0.0 | 1.0 | 0.00 | 0.00 | 0.00 | 82 | 1014.0 |
| 20260901223508 | 82 | 283 | 0.0 | 1.0 | 0.00 | 0.00 | 0.00 | 82 | 1014.0 |
| 20260901223055 | 82 | 283 | 0.0 | 0.0 | 0.00 | 0.00 | 0.00 | 82 | 1014.1 |
| 20260901222531 | 83 | 283 | 0.0 | 0.0 | 0.00 | 0.00 | 0.00 | 81 | 1014.0 |
| 20260901222011 | 83 | 283 | 0.0 | 0.0 | 0.00 | 0.00 | 0.00 | 81 | 1014.1 |
| 20260901221608 | 83 | 283 | 0.0 | 0.0 | 0.00 | 0.00 | 0.00 | 80 | 1014.2 |
| 20260901221036 | 83 | 283 | 0.0 | 0.0 | 0.00 | 0.00 | 0.00 | 80 | 1014.2 |
| 20260901220513 | 83 | 283 | 0.0 | 2.0 | 0.00 | 0.00 | 0.00 | 80 | 1014.1 |
| 20260901220054 | 83 | 283 | 0.0 | 4.0 | 0.00 | 0.00 | 0.00 | 80 | 1013.9 |
| 20260901215516 | 83 | 283 | 1.0 | 4.0 | 0.00 | 0.00 | 0.00 | 79 | 1013.9 |
| 20260901215100 | 83 | 44 | 1.0 | 4.0 | 0.00 | 0.00 | 0.00 | 79 | 1013.9 |
| 20260901214541 | 83 | 51 | 0.0 | 2.0 | 0.00 | 0.00 | 0.00 | 80 | 1013.9 |
| 20260901214020 | 83 | 51 | 0.0 | 4.0 | 0.00 | 0.00 | 0.00 | 79 | 1014.0 |
| 20260901213604 | 83 | 51 | 0.0 | 4.0 | 0.00 | 0.00 | 0.00 | 78 | 1014.0 |
| 20260901213045 | 83 | 51 | 0.0 | 4.0 | 0.00 | 0.00 | 0.00 | 78 | 1014.0 |
| 20260901212524 | 83 | 51 | 0.0 | 2.0 | 0.00 | 0.00 | 0.00 | 79 | 1014.0 |
| 20260901212004 | 83 | 51 | 0.0 | 0.0 | 0.00 | 0.00 | 0.00 | 79 | 1013.9 |
| 20260901211548 | 83 | 51 | 0.0 | 0.0 | 0.00 | 0.00 | 0.00 | 80 | 1013.9 |
| 20260901211028 | 83 | 51 | 0.0 | 4.0 | 0.00 | 0.00 | 0.00 | 80 | 1013.9 |
| 20260901210507 | 83 | 51 | 0.0 | 4.0 | 0.00 | 0.00 | 0.00 | 79 | 1013.9 |
| 20260901210052 | 83 | 51 | 0.0 | 2.0 | 0.00 | 0.00 | 0.00 | 79 | 1013.9 |
| 20260901205514 | 83 | 51 | 0.0 | 2.0 | 0.00 | 0.00 | 0.00 | 79 | 1013.8 |
| 20260901205058 | 83 | 51 | 0.0 | 0.0 | 0.00 | 0.00 | 0.00 | 81 | 1013.7 |
| 20260901204539 | 83 | 51 | 0.0 | 0.0 | 0.00 | 0.00 | 0.00 | 80 | 1013.8 |
| 20260901204018 | 83 | 51 | 0.0 | 0.0 | 0.00 | 0.00 | 0.00 | 80 | 1013.9 |
| 20260901203602 | 83 | 51 | 0.0 | 0.0 | 0.00 | 0.00 | 0.00 | 81 | 1013.9 |
| 20260901203044 | 82 | 51 | 0.0 | 0.0 | 0.00 | 0.00 | 0.00 | 80 | 1014.0 |
| 20260901202521 | 82 | 51 | 0.0 | 0.0 | 0.00 | 0.00 | 0.00 | 81 | 1014.1 |
| 20260901202003 | 82 | 51 | 0.0 | 1.0 | 0.00 | 0.00 | 0.00 | 80 | 1014.2 |
| 20260901201546 | 82 | 51 | 0.0 | 1.0 | 0.00 | 0.00 | 0.00 | 79 | 1014.2 |
| 20260901201026 | 82 | 51 | 0.0 | 1.0 | 0.00 | 0.01 | 0.00 | 79 | 1014.2 |
| 20260901200505 | 82 | 51 | 0.0 | 2.0 | 0.00 | 0.01 | 0.00 | 78 | 1014.2 |
| 20260901200103 | 83 | 51 | 0.0 | 2.0 | 0.00 | 0.01 | 0.00 | 78 | 1014.3 |
| 20260901195512 | 83 | 52 | 0.0 | 2.0 | 0.00 | 0.01 | 0.00 | 79 | 1014.3 |
| 20260901195058 | 82 | 52 | 0.0 | 4.0 | 0.00 | 0.01 | 0.00 | 79 | 1014.3 |
| 20260901194551 | 82 | 51 | 0.0 | 3.0 | 0.00 | 0.01 | 0.00 | 79 | 1014.3 |
| 20260901194016 | 82 | 51 | 0.0 | 2.0 | 0.00 | 0.01 | 0.00 | 78 | 1014.2 |
| 20260901193600 | 82 | 51 | 0.0 | 2.0 | 0.00 | 0.01 | 0.00 | 77 | 1014.3 |
| 20260901193039 | 83 | 51 | 0.0 | 2.0 | 0.00 | 0.01 | 0.00 | 78 | 1014.4 |
| 20260901192522 | 82 | 54 | 0.0 | 2.0 | 0.00 | 0.01 | 0.00 | 78 | 1014.4 |
| 20260901192104 | 82 | 54 | 0.0 | 5.0 | 0.00 | 0.01 | 0.00 | 79 | 1014.3 |
| 20260901191543 | 81 | 54 | 1.0 | 5.0 | 0.00 | 0.01 | 0.00 | 81 | 1014.4 |
| 20260901191027 | 81 | 54 | 0.0 | 5.0 | 0.00 | 0.08 | 0.00 | 80 | 1014.3 |
| 20260901190504 | 80 | 54 | 0.0 | 5.0 | 0.00 | 0.08 | 0.00 | 80 | 1014.3 |
| 20260901190101 | 80 | 54 | 0.0 | 2.0 | 0.00 | 0.08 | 0.00 | 80 | 1014.4 |
| 20260901185510 | 80 | 54 | 0.0 | 4.0 | 0.00 | 0.08 | 0.00 | 81 | 1014.4 |
| 20260901185053 | 80 | 54 | 0.0 | 4.0 | 0.00 | 0.08 | 0.00 | 82 | 1014.5 |